• In Germany
  • List of Countries
  • For 7 days
  • Water Temperature
  • Satellite Maps
  • Weather Map
  • Weather Widgets
  • user-avatar
    Login

    Hourly Weather Newcastle

    Today, 30 May, Tuesday

    Time Temperature Precipitation Wind Pressure Humidity
    00:00 +7°C° 0 mm 3 mps 766 mmHg 67%
    01:00 +7°C° 0 mm 3 mps 766 mmHg 69%
    02:00 +5°C° 0 mm 3 mps 766 mmHg 71%
    03:00 +5°C° 0 mm 3 mps 766 mmHg 72%
    04:00 +4°C° 0 mm 3 mps 766 mmHg 74%
    05:00 +4°C° 0 mm 3 mps 766 mmHg 75%
    06:00 +4°C° 0 mm 3 mps 766 mmHg 77%
    07:00 +4°C° 0 mm 3 mps 767 mmHg 78%
    08:00 +7°C° 0 mm 3 mps 766 mmHg 69%
    09:00 +9°C° 0 mm 3 mps 766 mmHg 60%
    10:00 +13°C° 0 mm 3 mps 766 mmHg 50%
    11:00 +14°C° 0 mm 3 mps 766 mmHg 46%
    12:00 +16°C° 0 mm 3 mps 765 mmHg 42%
    13:00 +17°C° 0 mm 3 mps 765 mmHg 38%
    14:00 +17°C° 0 mm 3 mps 765 mmHg 42%
    15:00 +17°C° 0 mm 3 mps 765 mmHg 46%
    16:00 +16°C° 0 mm 3 mps 765 mmHg 50%
    17:00 +14°C° 0 mm 3 mps 765 mmHg 54%
    18:00 +12°C° 0 mm 3 mps 765 mmHg 57%
    19:00 +11°C° 0 mm 3 mps 766 mmHg 61%
    20:00 +10°C° 0 mm 3 mps 766 mmHg 64%
    21:00 +10°C° 0 mm 3 mps 766 mmHg 67%
    22:00 +10°C° 0 mm 4 mps 766 mmHg 70%
    23:00 +8°C° 0 mm 4 mps 766 mmHg 73%

    Tomorrow, 31 May, Wednesday

    Time Temperature Precipitation Wind Pressure Humidity
    00:00 +8°C° 0 mm 4 mps 766 mmHg 76%
    01:00 +8°C° 0 mm 4 mps 766 mmHg 80%
    02:00 +7°C° 0 mm 4 mps 766 mmHg 81%
    03:00 +7°C° 0 mm 4 mps 766 mmHg 82%
    04:00 +7°C° 0 mm 4 mps 766 mmHg 83%
    05:00 +7°C° 0.2 mm 5 mps 767 mmHg 83%
    06:00 +7°C° 0.2 mm 5 mps 767 mmHg 84%
    07:00 +8°C° 0.2 mm 5 mps 767 mmHg 85%
    08:00 +9°C° 0.2 mm 5 mps 767 mmHg 79%
    09:00 +10°C° 0.2 mm 6 mps 768 mmHg 73%
    10:00 +13°C° 0.2 mm 6 mps 768 mmHg 67%
    11:00 +13°C° 0.1 mm 6 mps 768 mmHg 60%
    12:00 +14°C° 0.1 mm 6 mps 767 mmHg 54%
    13:00 +15°C° 0.1 mm 7 mps 767 mmHg 47%
    14:00 +14°C° 0.2 mm 7 mps 767 mmHg 48%
    15:00 +14°C° 0.2 mm 7 mps 768 mmHg 50%
    16:00 +12°C° 0.2 mm 7 mps 768 mmHg 51%
    17:00 +11°C° 0.4 mm 7 mps 769 mmHg 56%
    18:00 +10°C° 0.4 mm 7 mps 769 mmHg 62%
    19:00 +9°C° 0.4 mm 7 mps 770 mmHg 68%
    20:00 +9°C° 0.2 mm 7 mps 771 mmHg 68%
    21:00 +9°C° 0.2 mm 7 mps 771 mmHg 68%
    22:00 +8°C° 0.2 mm 7 mps 771 mmHg 68%
    23:00 +8°C° 0.2 mm 7 mps 771 mmHg 67%

    Day after tomorrow, 1 June, Thursday

    Time Temperature Precipitation Wind Pressure Humidity
    00:00 +8°C° 0.2 mm 7 mps 771 mmHg 67%
    01:00 +8°C° 0.2 mm 7 mps 771 mmHg 66%
    02:00 +8°C° 0.2 mm 7 mps 771 mmHg 67%
    03:00 +6°C° 0.2 mm 7 mps 771 mmHg 69%
    04:00 +7°C° 0.2 mm 6 mps 771 mmHg 70%
    05:00 +7°C° 0.2 mm 6 mps 772 mmHg 71%
    06:00 +5°C° 0.2 mm 6 mps 772 mmHg 71%
    07:00 +5°C° 0.2 mm 6 mps 773 mmHg 72%
    08:00 +8°C° 0.2 mm 6 mps 773 mmHg 67%
    09:00 +9°C° 0.2 mm 6 mps 773 mmHg 62%
    10:00 +11°C° 0.2 mm 6 mps 773 mmHg 58%
    11:00 +13°C° 0.1 mm 6 mps 773 mmHg 55%
    12:00 +14°C° 0.1 mm 6 mps 772 mmHg 53%
    13:00 +16°C° 0.1 mm 6 mps 772 mmHg 51%
    14:00 +15°C° 0.2 mm 6 mps 771 mmHg 53%
    15:00 +15°C° 0.2 mm 6 mps 771 mmHg 56%
    16:00 +14°C° 0.2 mm 5 mps 771 mmHg 59%
    17:00 +13°C° 0.2 mm 5 mps 772 mmHg 66%
    18:00 +10°C° 0.2 mm 6 mps 772 mmHg 73%
    19:00 +8°C° 0.2 mm 6 mps 773 mmHg 80%
    20:00 +8°C° 0.1 mm 6 mps 773 mmHg 80%
    21:00 +8°C° 0.1 mm 5 mps 773 mmHg 80%
    22:00 +8°C° 0.1 mm 5 mps 773 mmHg 80%
    23:00 +8°C° 0.1 mm 5 mps 773 mmHg 80%

    2 June, Friday

    Time Temperature Precipitation Wind Pressure Humidity
    00:00 +8°C° 0.1 mm 6 mps 773 mmHg 81%
    01:00 +8°C° 0.1 mm 6 mps 773 mmHg 81%
    02:00 +7°C° 0.1 mm 6 mps 772 mmHg 80%
    03:00 +7°C° 0.1 mm 6 mps 772 mmHg 79%
    04:00 +7°C° 0.1 mm 6 mps 772 mmHg 79%
    05:00 +5°C° 0.1 mm 6 mps 773 mmHg 79%
    06:00 +5°C° 0.1 mm 6 mps 773 mmHg 78%
    07:00 +5°C° 0.1 mm 6 mps 773 mmHg 78%
    08:00 +8°C° 0.1 mm 6 mps 773 mmHg 72%
    09:00 +10°C° 0.1 mm 6 mps 773 mmHg 65%
    10:00 +11°C° 0.1 mm 6 mps 773 mmHg 58%
    11:00 +14°C° 0.1 mm 6 mps 773 mmHg 56%
    12:00 +15°C° 0.1 mm 6 mps 772 mmHg 54%
    13:00 +16°C° 0.1 mm 6 mps 771 mmHg 51%
    14:00 +16°C° 0.1 mm 6 mps 771 mmHg 55%
    15:00 +15°C° 0.1 mm 6 mps 771 mmHg 58%
    16:00 +15°C° 0.1 mm 6 mps 771 mmHg 61%
    17:00 +14°C° 0.2 mm 6 mps 772 mmHg 68%
    18:00 +11°C° 0.2 mm 6 mps 772 mmHg 74%
    19:00 +10°C° 0.2 mm 6 mps 772 mmHg 81%
    20:00 +10°C° 0.2 mm 6 mps 772 mmHg 81%
    21:00 +10°C° 0.2 mm 5 mps 773 mmHg 81%
    22:00 +10°C° 0.2 mm 5 mps 773 mmHg 81%
    23:00 +10°C° 0.3 mm 5 mps 772 mmHg 81%

    3 June, Saturday

    Time Temperature Precipitation Wind Pressure Humidity
    00:00 +10°C° 0.3 mm 5 mps 772 mmHg 81%
    01:00 +10°C° 0.3 mm 5 mps 772 mmHg 80%
    02:00 +10°C° 0.3 mm 5 mps 771 mmHg 81%
    03:00 +10°C° 0.3 mm 5 mps 771 mmHg 83%
    04:00 +10°C° 0.3 mm 5 mps 771 mmHg 84%
    05:00 +10°C° 0.3 mm 5 mps 771 mmHg 84%
    06:00 +9°C° 0.3 mm 5 mps 772 mmHg 85%
    07:00 +9°C° 0.3 mm 5 mps 772 mmHg 85%
    08:00 +10°C° 0.3 mm 5 mps 772 mmHg 81%
    09:00 +12°C° 0.3 mm 5 mps 772 mmHg 76%
    10:00 +14°C° 0.3 mm 5 mps 772 mmHg 72%
    11:00 +14°C° 0.3 mm 5 mps 771 mmHg 71%
    12:00 +15°C° 0.3 mm 5 mps 771 mmHg 69%
    13:00 +16°C° 0.3 mm 5 mps 770 mmHg 68%
    14:00 +16°C° 0.3 mm 5 mps 770 mmHg 70%
    15:00 +16°C° 0.3 mm 5 mps 770 mmHg 72%
    16:00 +16°C° 0.3 mm 5 mps 770 mmHg 74%
    17:00 +14°C° 0.2 mm 5 mps 770 mmHg 79%
    18:00 +13°C° 0.2 mm 5 mps 770 mmHg 85%
    19:00 +10°C° 0.2 mm 5 mps 771 mmHg 90%
    20:00 +10°C° 0.1 mm 5 mps 771 mmHg 91%
    21:00 +10°C° 0.1 mm 5 mps 770 mmHg 91%
    22:00 +10°C° 0.1 mm 5 mps 770 mmHg 92%
    23:00 +9°C° 0.1 mm 5 mps 770 mmHg 92%

    4 June, Sunday

    Time Temperature Precipitation Wind Pressure Humidity
    00:00 +9°C° 0.1 mm 5 mps 770 mmHg 93%
    01:00 +9°C° 0.1 mm 5 mps 769 mmHg 93%
    02:00 +9°C° 0.2 mm 5 mps 769 mmHg 92%
    03:00 +9°C° 0.2 mm 5 mps 769 mmHg 91%
    04:00 +8°C° 0.2 mm 5 mps 769 mmHg 90%
    05:00 +8°C° 0.2 mm 5 mps 769 mmHg 90%
    06:00 +10°C° 0.2 mm 4 mps 769 mmHg 90%
    07:00 +10°C° 0.2 mm 4 mps 769 mmHg 90%
    08:00 +11°C° 0.1 mm 4 mps 769 mmHg 85%
    09:00 +13°C° 0.1 mm 4 mps 769 mmHg 80%
    10:00 +14°C° 0.1 mm 4 mps 769 mmHg 76%
    11:00 +15°C° 0.1 mm 4 mps 769 mmHg 73%
    12:00 +17°C° 0.1 mm 4 mps 768 mmHg 71%
    13:00 +18°C° 0.1 mm 4 mps 767 mmHg 68%
    14:00 +18°C° 0 mm 3 mps 767 mmHg 68%
    15:00 +18°C° 0 mm 3 mps 767 mmHg 68%
    16:00 +17°C° 0 mm 3 mps 767 mmHg 68%
    17:00 +14°C° 0 mm 3 mps 768 mmHg 73%
    18:00 +14°C° 0 mm 2 mps 768 mmHg 79%
    19:00 +12°C° 0 mm 2 mps 768 mmHg 84%
    20:00 +10°C° 0 mm 2 mps 768 mmHg 86%
    21:00 +10°C° 0 mm 2 mps 768 mmHg 87%
    22:00 +9°C° 0 mm 2 mps 768 mmHg 89%
    23:00 +9°C° 0 mm 2 mps 768 mmHg 91%
    Show more